• Join FlightAware (Why Join?)
  • Login
  • US Flag 
08:00PM EDT


 

Airport Tracker/Info


-or-


 

Live Flight TrackerFlight Track Log ✈ UPS1143 ✈ 18-Jun-2014 ✈ KBUF - KSDF

Flight Track Log - Related Links

Times and Time Zones

All times are in EDT time to prevent confusion due to time zone crossing. See the UPS1143 flight status page for this flight to view local times or setup timezone preferences in your user account.

Time Position Orientation Groundspeed Altitude Reporting Facility
EDT Latitude Longitude Course Direction KTS MPH feet Rate Location/Type
11:24PM 42.8702 -78.8216 223° Southwest 258 297 4,800  Level FlightAware ADS-B (CYYZ)
11:24PM 42.8560 -78.8385 223° Southwest 267 307 5,800 3,780 Climbing FlightAware ADS-B (CYYZ)
11:24PM 42.8420 -78.8557 223° Southwest 274 315 6,700 3,780 Climbing FlightAware ADS-B (CYYZ)
11:24PM 42.8277 -78.8731 222° Southwest 278 320 7,700 3,660 Climbing FlightAware ADS-B (CYYZ)
11:25PM 42.8132 -78.8905 221° Southwest 282 325 8,600 3,180 Climbing FlightAware ADS-B (CYYZ)
11:25PM 42.7977 -78.9093 221° Southwest 287 330 9,300 2,880 Climbing FlightAware ADS-B (CYYZ)
11:25PM 42.7688 -78.9429 222° Southwest 299 344 10,800 2,400 Climbing FlightAware ADS-B (CYYZ)
11:26PM 42.7335 -78.9856 222° Southwest 341 392 11,700 1,620 Climbing FlightAware ADS-B (CYYZ)
11:26PM 42.6962 -79.0294 222° Southwest 381 438 12,400 2,160 Climbing FlightAware ADS-B (CYYZ)
11:27PM 42.6559 -79.0781 222° Southwest 392 451 13,900 3,000 Climbing FlightAware ADS-B (CYYZ)
11:27PM 42.6139 -79.1274 222° Southwest 401 461 15,400 3,060 Climbing FlightAware ADS-B (CYYZ)
11:28PM 42.5926 -79.1540 221° Southwest 405 466 16,200 2,700 Climbing FlightAware ADS-B (CYKZ)
11:28PM 42.5731 -79.1787 226° Southwest 406 467 16,800 2,700 Climbing FlightAware ADS-B (CYYZ)
11:28PM 42.5370 -79.2384 232° Southwest 411 473 18,200 2,820 Climbing FlightAware ADS-B (CYYZ)
11:29PM 42.5022 -79.2994 232° Southwest 415 478 19,600 2,700 Climbing FlightAware ADS-B (CYYZ)
11:29PM 42.4848 -79.3280 232° Southwest 418 481 20,200 2,760 Climbing FlightAware ADS-B (CYKZ)
11:29PM 42.4654 -79.3608 232° Southwest 419 482 21,000 3,180 Climbing FlightAware ADS-B (CYYZ)
11:30PM 42.4488 -79.3897 231° Southwest 423 487 21,800 2,280 Climbing FlightAware ADS-B (CYKZ)
11:30PM 42.4302 -79.4207 232° Southwest 424 488 22,200 2,040 Climbing FlightAware ADS-B (CYYZ)
11:30PM 42.4075 -79.4602 232° Southwest 427 491 23,000 2,400 Climbing FlightAware ADS-B (CYKZ)
11:30PM 42.3912 -79.4874 232° Southwest 428 493 23,400 2,040 Climbing FlightAware ADS-B (CYYZ)
11:31PM 42.3540 -79.5486 232° Southwest 436 502 24,400 1,920 Climbing FlightAware ADS-B (CYYZ)
11:31PM 42.3158 -79.6131 232° Southwest 445 512 25,300 1,860 Climbing FlightAware ADS-B (CYYZ)
11:32PM 42.3056 -79.6305 231° Southwest 448 516 25,600 1,800 Climbing FlightAware ADS-B (CYKZ)
11:32PM 42.2767 -79.6785 232° Southwest 450 518 26,200 1,800 Climbing FlightAware ADS-B (CYYZ)
11:32PM 42.2403 -79.7399 231° Southwest 455 524 27,100 1,740 Climbing FlightAware ADS-B (CYKZ)
11:32PM 42.2369 -79.7465 232° Southwest 455 524 27,100 2,040 Level FlightAware ADS-B (CYYZ)
11:33PM 42.1974 -79.8127 232° Southwest 454 522 28,200 2,100 Climbing FlightAware ADS-B (CYYZ)
11:33PM 42.1597 -79.8743 232° Southwest 453 521 29,200 1,860 Climbing FlightAware ADS-B (CYYZ)
11:34PM 42.1181 -79.9448 232° Southwest 453 521 30,100 1,860 Climbing FlightAware ADS-B (CYYZ)
11:34PM 42.0796 -80.0082 232° Southwest 450 518 31,100 1,980 Climbing FlightAware ADS-B (CYYZ)
11:35PM 42.0396 -80.0753 231° Southwest 447 514 32,100 1,860 Climbing FlightAware ADS-B (CYYZ)
11:35PM 42.0047 -80.1312 231° Southwest 445 512 33,000 1,680 Climbing FlightAware ADS-B (CYYZ)
11:36PM 41.9659 -80.1954 231° Southwest 442 509 33,800 720 Climbing FlightAware ADS-B (CYYZ)
11:37PM 41.9003 -80.3043 231° Southwest 446 513 34,000 60 Climbing FlightAware ADS-B (CYYZ)
11:38PM 41.8206 -80.4332 231° Southwest 446 513 34,000  Level FlightAware ADS-B (CYYZ)
11:38PM 41.7803 -80.4999 231° Southwest 436 502 34,000  Level FlightAware ADS-B (CYYZ)
11:38PM 41.7758 -80.5063 231° Southwest 438 504 34,000  Level FlightAware ADS-B (CYKZ)
11:39PM 41.7421 -80.5610 231° Southwest 442 509 34,000  Level FlightAware ADS-B (CYYZ)
11:39PM 41.7341 -80.5736 231° Southwest 442 509 34,000  Level FlightAware ADS-B (CYYZ)
11:40PM 41.6676 -80.6842 231° Southwest 443 510 34,000  Level FlightAware ADS-B (CYYZ)
11:40PM 41.6478 -80.7162 231° Southwest 443 510 34,000  Level FlightAware ADS-B (CYKZ)
11:40PM 41.6249 -80.7541 231° Southwest 442 509 34,000  Level FlightAware ADS-B (CYYZ)
11:41PM 41.6002 -80.7920 231° Southwest 441 507 34,000  Level FlightAware ADS-B (CYYZ)
11:41PM 41.5489 -80.8758 231° Southwest 441 507 34,000  Level FlightAware ADS-B (CYYZ)
11:42PM 41.5072 -80.9415 231° Southwest 448 516 34,000  Level FlightAware ADS-B (CYYZ)
11:42PM 41.5002 -80.9542 230° Southwest 448 516 34,000  Level FlightAware ADS-B (CYKZ)
11:42PM 41.4686 -81.0031 231° Southwest 448 516 34,000  Level FlightAware ADS-B (CYYZ)
11:43PM 41.3937 -81.1242 230° Southwest 445 512 34,000  Level FlightAware ADS-B (CYKZ)
11:44PM 41.3525 -81.1893 231° Southwest 443 510 34,000  Level FlightAware ADS-B (CYYZ)
11:44PM 41.3290 -81.2269 230° Southwest 443 510 34,000  Level FlightAware ADS-B (CYKZ)
11:44PM 41.3028 -81.2689 231° Southwest 445 512 34,000  Level FlightAware ADS-B (CYYZ)
11:45PM 41.2620 -81.3342 231° Southwest 449 517 34,000 60 Level FlightAware ADS-B (CYYZ)
11:45PM 41.2257 -81.3915 231° Southwest 450 518 34,100 60 Climbing FlightAware ADS-B (CYYZ)
11:46PM 41.1815 -81.4617 231° Southwest 453 521 34,100  Level FlightAware ADS-B (CYYZ)
11:46PM 41.1413 -81.5236 231° Southwest 454 522 34,100 -120 Level FlightAware ADS-B (CYYZ)
11:47PM 41.1005 -81.5873 230° Southwest 452 520 34,000 -120 Descending FlightAware ADS-B (CYYZ)
11:47PM 41.0601 -81.6508 230° Southwest 450 518 34,000  Level FlightAware ADS-B (CYYZ)
11:48PM 41.0217 -81.7119 230° Southwest 451 519 34,000  Level FlightAware ADS-B (CYYZ)
11:48PM 41.0162 -81.7203 230° Southwest 452 520 34,000  Level FlightAware ADS-B (CYKZ)
11:48PM 40.9793 -81.7775 230° Southwest 453 521 34,000  Level FlightAware ADS-B (CYYZ)
11:49PM 40.9552 -81.8155 230° Southwest 454 522 34,000  Level FlightAware ADS-B (CYYZ)
11:49PM 40.9122 -81.8831 230° Southwest 453 521 34,000  Level Cleveland Center
11:50PM 40.8289 -82.0125 230° Southwest 454 522 34,000  Level Cleveland Center
11:51PM 40.7461 -82.1419 230° Southwest 455 524 34,000  Level Cleveland Center
11:52PM 40.6631 -82.2692 229° Southwest 455 524 34,000  Level Cleveland Center
11:53PM 40.5939 -82.3761 230° Southwest 455 524 34,000  Level Indianapolis Center
11:54PM 40.5106 -82.5039 229° Southwest 455 524 34,000  Level Indianapolis Center
11:55PM 40.4278 -82.6314 230° Southwest 455 524 34,000  Level Indianapolis Center
11:56PM 40.3422 -82.7583 229° Southwest 456 525 34,000  Level Indianapolis Center
11:57PM 40.2558 -82.8847 228° Southwest 456 525 34,000 -600 Level Indianapolis Center
12:03AM 39.7123 -83.6509 228° Southwest 470 541 30,000 -600 Descending FlightAware ADS-B (KPMH)
12:04AM 39.6526 -83.7407 231° Southwest 470 541 30,100 60 Climbing FlightAware ADS-B (KPMH)
12:05AM 39.6155 -83.7994 230° Southwest 471 542 30,100 -60 Level FlightAware ADS-B (KPMH)
12:06AM 39.4538 -84.0459 230° Southwest 463 533 30,000  Descending FlightAware ADS-B (KPMH)
12:07AM 39.3814 -84.1556 230° Southwest 465 535 30,100  Climbing FlightAware ADS-B (KPMH)
12:08AM 39.3339 -84.2273 230° Southwest 465 535 30,000 -1,980 Descending FlightAware ADS-B (KPMH)
12:12AM 39.0214 -84.6311 224° Southwest 417 480 22,000 -2,400 Descending FlightAware ADS-B (KCVG)
12:12AM 38.9816 -84.6809 224° Southwest 402 463 20,600 -2,880 Descending FlightAware ADS-B (KCVG)
12:13AM 38.9299 -84.7442 224° Southwest 390 449 18,700 -2,640 Descending FlightAware ADS-B (KCVG)
12:13AM 38.8873 -84.7967 224° Southwest 383 441 17,500 -2,640 Descending FlightAware ADS-B (KCVG)
12:14AM 38.8464 -84.8466 224° Southwest 381 438 15,600 -2,820 Descending FlightAware ADS-B (KCVG)
12:14AM 38.7990 -84.9040 224° Southwest 378 435 14,200 -1,620 Descending FlightAware ADS-B (KCVG)
12:15AM 38.7597 -84.9517 224° Southwest 378 435 13,900 -900 Descending FlightAware ADS-B (KCVG)
12:20AM 38.3985 -85.2981 217° Southwest 285 328 9,800 -960 Descending FlightAware ADS-B (KBRY)
12:21AM 38.3214 -85.3736 217° Southwest 278 320 8,300 -900 Descending FlightAware ADS-B (KBRY)
12:22AM 38.2638 -85.4273 216° Southwest 235 270 7,900 -720 Descending FlightAware ADS-B (KBRY)
12:23AM 38.2131 -85.4752 216° Southwest 222 255 6,900 -1,140 Descending FlightAware ADS-B (KBRY)
12:24AM 38.1643 -85.5213 217° Southwest 216 249 5,700 -1,200 Descending FlightAware ADS-B (KBRY)
12:25AM 38.1162 -85.5659 211° Southwest 215 247 4,500 -900 Descending FlightAware ADS-B (KBRY)
12:26AM 38.0552 -85.5619 171° South 223 257 3,900 -660 Descending FlightAware ADS-B (KBRY)
12:27AM 37.9948 -85.5493 171° South 221 254 3,200 -540 Descending FlightAware ADS-B (KBRY)
12:28AM 37.9615 -85.5971 257° West 194 223 2,900 -180 Descending FlightAware ADS-B (KBRY)
12:29AM 37.9852 -85.6521 322° Northwest 188 216 2,900 -120 Level FlightAware ADS-B (KBRY)
12:30AM 38.0451 -85.6831 346° North 197 227 2,700 -600 Descending FlightAware ADS-B (KBRY)
12:31AM 38.0959 -85.6998 344° North 170 196 1,700 -900 Descending FlightAware ADS-B (KBRY)
12:32AM 38.1342 -85.7132 346° North 138 159 1,000 -720 Descending FlightAware ADS-B (KBRY)